Rochelle, IL

9:08 PM CST on February 18, 2018 (GMT -0600)
Rochelle

Weather History for KRPJ - December, 2012

Change the Weather History Date:

Friday, December 21, 2012

  Actual Average (KRFD) Record (KRFD)
Temperature  
Mean Temperature 22 °F -  
Max Temperature 28 °F 30 °F 56 °F (1967)
Min Temperature 14 °F 13 °F -20 °F (1963)
Degree Days  
Heating Degree Days 44    
Moisture  
Dew Point 16 °F    
Average Humidity 79    
Maximum Humidity 86    
Minimum Humidity 71    
Precipitation  
Precipitation 0.00 in - - ()
Sea Level Pressure  
Sea Level Pressure 29.99 in    
Wind  
Wind Speed 21 mph (NW)    
Max Wind Speed 30 mph    
Max Gust Speed 40 mph    
Visibility 10 miles    
Events      
Averages and records for this station are not official NWS values.
T = Trace of Precipitation, MM = Missing Value Source: NWS Daily Summary

Daily Weather History Graph

Daily Weather History Graph

Search for Another Location

Airport or City:

Trip Planner

Search our weather history database for the weather conditions in past years. The results will help you decide how hot, cold, wet, or windy it might be!

Date:

Astronomy

Dec. 21, 2012 Rise Set
Actual Time 7:20 AM CST 4:28 PM CST
Civil Twilight 6:49 AM CST 5:00 PM CST
Nautical Twilight 6:14 AM CST 5:35 PM CST
Astronomical Twilight 5:40 AM CST 6:09 PM CST
Moon 12:19 PM CST (12/21) 1:03 AM CST (12/21)
Length of Visible Light 10h 11m
Length of Day
9h 07m
Waxing Gibbous, 65% of the Moon is Illuminated
Dec 21
Waxing Gibbous
Dec 28
Full
Jan 4
Last Quarter
Jan 11
New
Jan 18
First Quarter

Hourly Weather History & Observations

Time (CST) Temp. Windchill Dew Point Humidity Pressure Visibility Wind Dir Wind Speed Gust Speed Precip Events Conditions
12:15 AM 28.9 °F 13.7 °F 24.4 °F 83% 29.61 in 10.0 mi NW 28.8 mph 35.7 mph N/A   Overcast
12:35 AM 28.4 °F 13.0 °F 23.9 °F 83% 29.63 in 10.0 mi WNW 28.8 mph 39.1 mph N/A   Overcast
12:55 AM 27.7 °F 13.5 °F 23.7 °F 85% 29.65 in 10.0 mi WNW 23.0 mph 40.3 mph N/A   Overcast
1:15 AM 27.3 °F 11.5 °F 23.0 °F 84% 29.67 in 10.0 mi WNW 28.8 mph 38.0 mph N/A   Overcast
1:35 AM 27.0 °F 11.9 °F 22.8 °F 84% 29.68 in 10.0 mi WNW 25.3 mph 35.7 mph N/A   Overcast
1:55 AM 26.6 °F 10.8 °F 22.5 °F 84% 29.70 in 10.0 mi NW 27.6 mph 36.8 mph N/A   Mostly Cloudy
2:15 AM 26.4 °F 10.9 °F 22.1 °F 84% 29.71 in 10.0 mi NW 26.5 mph 36.8 mph N/A   Scattered Clouds
2:35 AM 26.2 °F 10.9 °F 21.9 °F 84% 29.72 in 10.0 mi NW 25.3 mph 34.5 mph N/A   Mostly Cloudy
2:55 AM 25.7 °F 9.1 °F 21.2 °F 83% 29.74 in 10.0 mi NW 29.9 mph 39.1 mph N/A   Scattered Clouds
3:15 AM 25.2 °F 9.2 °F 20.8 °F 84% 29.76 in 10.0 mi NW 26.5 mph 34.5 mph N/A   Scattered Clouds
3:35 AM 24.8 °F 9.6 °F 20.3 °F 83% 29.78 in 10.0 mi NW 23.0 mph 36.8 mph N/A   Mostly Cloudy
3:55 AM 24.3 °F 8.3 °F 19.9 °F 84% 29.79 in 10.0 mi NW 25.3 mph 38.0 mph N/A   Mostly Cloudy
4:15 AM 23.7 °F 7.2 °F 19.4 °F 84% 29.80 in 10.0 mi NW 26.5 mph 39.1 mph N/A   Scattered Clouds
4:35 AM 23.0 °F 6.0 °F 18.9 °F 84% 29.81 in 10.0 mi NW 27.6 mph 36.8 mph N/A   Clear
4:55 AM 22.6 °F 6.8 °F 18.5 °F 84% 29.82 in 10.0 mi NW 23.0 mph 33.4 mph N/A   Clear
5:15 AM 22.1 °F 6.8 °F 18.1 °F 85% 29.84 in 10.0 mi NW 20.7 mph 33.4 mph N/A   Clear
5:35 AM 21.7 °F 5.6 °F 17.6 °F 84% 29.85 in 10.0 mi NW 23.0 mph 29.9 mph N/A   Clear
5:55 AM 21.2 °F 6.0 °F 17.2 °F 85% 29.86 in 10.0 mi NW 19.6 mph 28.8 mph N/A   Clear
6:15 AM 20.8 °F 4.4 °F 16.7 °F 84% 29.87 in 10.0 mi NW 23.0 mph 27.6 mph N/A   Clear
6:35 AM 20.1 °F 4.6 °F 16.5 °F 86% 29.88 in 10.0 mi NW 19.6 mph 28.8 mph N/A   Clear
6:55 AM 19.8 °F 4.5 °F 15.8 °F 85% 29.90 in 10.0 mi NW 18.4 mph 26.5 mph N/A   Clear
7:15 AM 19.6 °F 4.3 °F 15.8 °F 85% 29.92 in 10.0 mi NW 18.4 mph 29.9 mph N/A   Clear
7:35 AM 18.9 °F 2.9 °F 14.9 °F 85% 29.92 in 10.0 mi NW 19.6 mph 27.6 mph N/A   Clear
7:55 AM 18.7 °F 2.3 °F 14.7 °F 85% 29.93 in 10.0 mi NW 20.7 mph 29.9 mph N/A   Clear
8:15 AM 18.5 °F 2.4 °F 14.4 °F 84% 29.95 in 10.0 mi NW 19.6 mph 26.5 mph N/A   Clear
8:35 AM 19.4 °F 3.6 °F 14.5 °F 81% 29.95 in 10.0 mi NW 19.6 mph 27.6 mph N/A   Clear
8:55 AM 19.6 °F 4.3 °F 14.7 °F 81% 29.96 in 10.0 mi NW 18.4 mph 34.5 mph N/A   Clear
9:15 AM 20.3 °F 5.2 °F 15.1 °F 80% 29.96 in 10.0 mi NW 18.4 mph 25.3 mph N/A   Clear
9:35 AM 20.5 °F 5.0 °F 15.1 °F 80% 29.97 in 10.0 mi NW 19.6 mph 26.5 mph N/A   Clear
9:55 AM 21.2 °F 6.0 °F 15.6 °F 79% 29.99 in 10.0 mi NW 19.6 mph 27.6 mph N/A   Clear
10:15 AM 21.7 °F 6.3 °F 15.8 °F 78% 29.99 in 10.0 mi NW 20.7 mph 28.8 mph N/A   Clear
10:35 AM 21.9 °F 5.8 °F 15.3 °F 76% 30.01 in 10.0 mi NW 23.0 mph 28.8 mph N/A   Clear
10:55 AM 23.0 °F 8.3 °F 16.3 °F 76% 30.01 in 10.0 mi NW 19.6 mph 26.5 mph N/A   Clear
11:15 AM 23.0 °F 9.2 °F 16.2 °F 75% 30.02 in 10.0 mi NW 17.3 mph 24.2 mph N/A   Clear
11:35 AM 22.6 °F 8.7 °F 15.4 °F 74% 30.02 in 10.0 mi NW 17.3 mph 28.8 mph N/A   Clear
11:55 AM 23.0 °F 8.0 °F 16.2 °F 75% 30.02 in 10.0 mi NW 20.7 mph 26.5 mph N/A   Clear
12:15 PM 23.4 °F 8.4 °F 16.2 °F 74% 30.03 in 10.0 mi NW 20.7 mph 26.5 mph N/A   Clear
12:35 PM 23.4 °F 9.2 °F 15.8 °F 73% 30.04 in 10.0 mi NW 18.4 mph 26.5 mph N/A   Clear
12:55 PM 23.9 °F 10.8 °F 16.3 °F 73% 30.04 in 10.0 mi NW 16.1 mph - N/A   Clear
1:15 PM 24.1 °F 11.0 °F 16.5 °F 73% 30.05 in 10.0 mi WNW 16.1 mph 26.5 mph N/A   Clear
1:35 PM 24.3 °F 11.2 °F 16.3 °F 72% 30.04 in 10.0 mi NW 16.1 mph 24.2 mph N/A   Clear
1:55 PM 24.3 °F 10.4 °F 16.7 °F 73% 30.05 in 10.0 mi NW 18.4 mph 24.2 mph N/A   Clear
2:15 PM 24.3 °F 11.7 °F 16.7 °F 73% 30.06 in 10.0 mi NW 15.0 mph 23.0 mph N/A   Clear
2:35 PM 24.4 °F 10.6 °F 16.3 °F 71% 30.06 in 10.0 mi NW 18.4 mph 23.0 mph N/A   Clear
2:55 PM 23.9 °F 9.9 °F 16.0 °F 72% 30.08 in 10.0 mi NW 18.4 mph 25.3 mph N/A   Clear
3:15 PM 23.9 °F 9.9 °F 15.8 °F 71% 30.09 in 10.0 mi NW 18.4 mph 26.5 mph N/A   Clear
3:35 PM 23.4 °F 9.2 °F 15.6 °F 72% 30.10 in 10.0 mi NW 18.4 mph 26.5 mph N/A   Clear
3:55 PM 22.8 °F 8.9 °F 15.1 °F 72% 30.11 in 10.0 mi NW 17.3 mph 26.5 mph N/A   Clear
4:15 PM 22.1 °F 8.5 °F 14.7 °F 73% 30.12 in 10.0 mi NW 16.1 mph 23.0 mph N/A   Clear
4:55 PM 21.2 °F 9.5 °F 14.4 °F 75% 30.14 in 10.0 mi WNW 11.5 mph 18.4 mph N/A   Clear
5:15 PM 21.0 °F 8.6 °F 14.4 °F 75% 30.15 in 10.0 mi NW 12.7 mph 17.3 mph N/A   Clear
5:55 PM 20.3 °F 9.0 °F 14.0 °F 77% 30.17 in 10.0 mi NW 10.4 mph - N/A   Clear
6:15 PM 20.1 °F 8.8 °F 14.0 °F 77% 30.18 in 10.0 mi NW 10.4 mph - N/A   Clear
6:35 PM 19.9 °F 9.3 °F 13.8 °F 77% 30.18 in 10.0 mi NW 9.2 mph - N/A   Clear
6:55 PM 19.8 °F 9.9 °F 13.6 °F 77% 30.18 in 10.0 mi NW 8.1 mph - N/A   Clear
7:15 PM 19.4 °F 8.6 °F 13.5 °F 78% 30.18 in 10.0 mi NW 9.2 mph - N/A   Clear
7:35 PM 19.2 °F 7.7 °F 13.5 °F 78% 30.19 in 10.0 mi NW 10.4 mph - N/A   Clear
7:55 PM 19.0 °F 6.8 °F 13.1 °F 78% 30.19 in 10.0 mi NW 11.5 mph - N/A   Clear
8:15 PM 18.9 °F 9.8 °F 13.1 °F 78% 30.19 in 10.0 mi NW 6.9 mph - N/A   Clear
8:35 PM 18.5 °F 8.4 °F 13.1 °F 79% 30.19 in 10.0 mi NW 8.1 mph - N/A   Clear
8:55 PM 18.9 °F 7.2 °F 13.1 °F 78% 30.20 in 10.0 mi NW 10.4 mph - N/A   Clear
9:15 PM 19.0 °F 7.5 °F 13.1 °F 78% 30.19 in 10.0 mi NNW 10.4 mph - N/A   Clear
9:35 PM 18.5 °F 9.3 °F 12.7 °F 78% 30.19 in 10.0 mi WNW 6.9 mph - N/A   Clear
9:55 PM 17.6 °F 8.2 °F 12.2 °F 79% 30.20 in 10.0 mi WNW 6.9 mph - N/A   Clear
10:15 PM 17.8 °F 8.5 °F 12.0 °F 78% 30.21 in 10.0 mi WNW 6.9 mph - N/A   Clear
10:35 PM 17.4 °F 9.1 °F 12.0 °F 79% 30.20 in 10.0 mi WNW 5.8 mph - N/A   Clear
10:55 PM 16.5 °F 9.4 °F 11.7 °F 81% 30.20 in 10.0 mi WNW 4.6 mph - N/A   Clear
11:15 PM 15.4 °F 8.1 °F 11.7 °F 85% 30.20 in 10.0 mi West 4.6 mph - N/A   Clear
11:35 PM 15.4 °F - 11.3 °F 84% 30.20 in 10.0 mi Calm Calm - N/A   Clear
11:55 PM 14.5 °F 3.6 °F 11.1 °F 86% 30.20 in 10.0 mi West 8.1 mph - N/A   Clear